Latest Coastal Weather Observations for Truscott

IDW60701

Issued at 12:15 pm WST Monday 28 July 2014 (issued every 10 minutes, with the page automatically refreshed every 10 minutes)

About coastal observations | Map of coastal stations | Coastal observations for WA | Marine services | Other Formats
Station Details ID: 001020 Name: TRUSCOTT Lat: -14.09 Lon: 126.39 Height: 51.0 m
Data from the previous 72 hours. | See also: Recent months at Truscott
Date/Time
WST
Temp

°C
Wind Pressure Rain
since 9am
mm
Weather Cloud Vis
km
Sea
Height
m
Swell
Dir
 
Speed
knots
Gust
knots
hPa Trend Height
m
Period
s
Dir
28/12:00pm 29.6 E 8 11 1014.8 - 0.0 - - 10 - - - -
28/11:30am 30.0 ENE 7 - 1015.0 - 0.0 - - 10 - - - -
28/11:00am 29.0 E 6 - 1015.0 - 0.0 - - 10 - - - -
28/10:30am 28.0 ENE 8 - 1016.0 - 0.0 - Partly cloudy 10 - - - -
28/10:00am 28.0 E 5 - 1016.0 - 0.0 - Partly cloudy 10 - - - -
28/09:30am 29.0 E 4 - 1017.0 - 0.0 - Partly cloudy 10 - - - -
28/09:00am 26.8 NNE 3 - 1017.0 - 0.0 - Mostly clear 10 - - - -
28/08:30am 25.0 CALM 0 - 1017.0 - 0.0 - Cloudy 10 - - - -
28/08:00am 23.0 CALM 0 - 1017.0 - 0.0 - Cloudy 10 - - - -
28/07:30am 23.0 SW 1 - 1016.0 - 0.0 - Partly cloudy 10 - - - -
28/07:00am 23.0 S 4 - 1016.0 - 0.0 - Partly cloudy 10 - - - -
28/06:30am 22.0 SSW 5 - 1016.0 - 0.0 - Cloudy 10 - - - -
28/06:00am 21.4 SW 4 - 1015.4 - 0.0 - Partly cloudy 10 - - - -
28/05:30am 22.0 WSW 3 - 1015.0 - 0.0 - Partly cloudy 10 - - - -
28/05:00am 21.0 W 4 - 1015.0 - 0.0 - Partly cloudy 10 - - - -
28/04:30am 20.0 SSW 1 - 1014.0 - 0.0 - Partly cloudy 10 - - - -
28/04:00am 20.0 CALM 0 - 1014.0 - 0.0 - - 10 - - - -
28/03:30am 21.0 SSW 4 - 1014.0 - 0.0 - - 10 - - - -
28/03:00am 21.3 SW 4 - 1013.9 - 0.0 - Mostly clear 10 - - - -
28/02:30am 22.0 SW 5 - 1014.0 - 0.0 - Partly cloudy 10 - - - -
28/02:00am 22.0 SSW 4 - 1014.0 - 0.0 - Partly cloudy 10 - - - -
28/01:30am 21.0 SSW 3 - 1014.0 - 0.0 - Partly cloudy 10 - - - -
28/01:00am 22.0 SSW 6 - 1014.0 - 0.0 - - 10 - - - -
28/12:30am 22.0 SSW 3 - 1015.0 - 0.0 - - 10 - - - -
28/12:00am 21.7 SSW 4 5 1015.1 - 0.0 - - 10 - - - -
 
Date/Time
WST
Temp

°C
Wind Pressure Rain
since 9am
mm
Weather Cloud Vis
km
Sea
Height
m
Swell
Dir
 
Speed
knots
Gust
knots
hPa Trend Height
m
Period
s
Dir
27/11:30pm 21.0 CALM 0 - 1015.0 - 0.0 - - 9 - - - -
27/11:00pm 21.0 SW 2 - 1015.0 - 0.0 - - 10 - - - -
27/10:30pm 21.0 NNE 2 - 1016.0 - 0.0 - - 10 - - - -
27/10:00pm 21.0 CALM 0 - 1016.0 - 0.0 - - 10 - - - -
27/09:30pm 21.0 CALM 0 - 1016.0 - 0.0 - Partly cloudy 10 - - - -
27/09:00pm 21.3 CALM 0 - 1016.3 - 0.0 - - 10 - - - -
27/08:30pm 22.0 CALM 0 - 1016.0 - 0.0 - - 10 - - - -
27/08:00pm 23.0 CALM 0 - 1016.0 - 0.0 - - 10 - - - -
27/07:30pm 23.0 CALM 0 - 1016.0 - 0.0 - - 10 - - - -
27/07:00pm 24.0 N 2 - 1015.0 - 0.0 - - 10 - - - -
27/06:30pm 24.0 N 3 - 1015.0 - 0.0 - - 10 - - - -
27/06:00pm 24.5 N 2 - 1015.0 - 0.0 - - 10 - - - -
27/05:30pm 25.0 N 5 - 1014.0 - 0.0 - Partly cloudy 10 - - - -
27/05:00pm 26.0 N 5 - 1014.0 - 0.0 - Partly cloudy 10 - - - -
27/04:30pm 27.0 N 7 - 1014.0 - 0.0 - Cloudy 7 - - - -
27/04:00pm 28.0 NNE 7 - 1014.0 - 0.0 - Cloudy 10 - - - -
27/03:30pm 28.0 N 8 - 1013.0 - 0.0 - Partly cloudy 10 - - - -
27/03:00pm 28.8 NNE 8 - 1013.2 - 0.0 - Partly cloudy 10 - - - -
27/02:30pm 29.0 NNE 11 - 1013.0 - 0.0 - Partly cloudy 10 - - - -
27/02:00pm 29.0 NNE 9 - 1013.0 - 0.0 - Partly cloudy 10 - - - -
27/01:30pm 30.0 NNE 9 - 1014.0 - 0.0 - - 10 - - - -
27/01:00pm 30.0 ENE 10 - 1014.0 - 0.0 - - 10 - - - -
27/12:30pm 30.0 NE 10 - 1014.0 - 0.0 - - 10 - - - -
27/12:00pm 30.2 NE 9 - 1015.1 - 0.0 - - 10 - - - -
27/11:30am 30.0 ENE 9 - 1016.0 - 0.0 - - 10 - - - -
27/11:00am 30.0 ENE 9 - 1016.0 - 0.0 - Partly cloudy 10 - - - -
27/10:30am 29.0 E 9 - 1016.0 - 0.0 - Partly cloudy 10 - - - -
27/10:00am 29.0 E 8 - 1017.0 - 0.0 - Partly cloudy 10 - - - -
27/09:30am 28.0 E 12 - 1017.0 - 0.0 - Partly cloudy 10 - - - -
27/09:00am 27.7 ESE 8 - 1017.0 - 0.0 - Partly cloudy 10 - - - -
27/08:30am 27.0 ESE 7 - 1017.0 - 0.0 - Partly cloudy 10 - - - -
27/08:00am 26.0 SE 5 - 1017.0 - 0.0 - Cloudy 10 - - - -
27/07:30am 23.0 SE 3 - 1016.0 - 0.0 - Partly cloudy 10 - - - -
27/07:00am 22.0 S 3 - 1016.0 - 0.0 - Partly cloudy 10 - - - -
27/06:30am 20.0 CALM 0 - 1016.0 - 0.0 - Partly cloudy 10 - - - -
27/06:00am 20.6 S 4 - 1015.7 - 0.0 - Partly cloudy 10 - - - -
27/05:30am 21.0 SSW 4 - 1015.0 - 0.0 - - 10 - - - -
27/05:00am 21.0 SSW 3 - 1015.0 - 0.0 - Partly cloudy 10 - - - -
27/04:30am 22.0 SW 4 - 1015.0 - 0.0 - Cloudy 7 - - - -
27/04:00am 22.0 SW 4 - 1015.0 - 0.0 - Cloudy 9 - - - -
27/03:30am 22.0 SW 5 - 1015.0 - 0.0 - Cloudy 9 - - - -
27/03:00am 22.1 SW 5 - 1015.0 - 0.0 - Mostly cloudy 10 - - - -
27/02:30am 22.0 SW 6 - 1015.0 - 0.0 - Cloudy 10 - - - -
27/02:00am 22.0 SW 7 - 1015.0 - 0.0 - Partly cloudy 10 - - - -
27/01:30am 23.0 SW 7 - 1016.0 - 0.0 - Cloudy 6 - - - -
27/01:00am 23.0 SSW 6 - 1016.0 - 0.0 - Cloudy 10 - - - -
27/12:30am 22.0 S 4 - 1016.0 - 0.0 - Cloudy 10 - - - -
27/12:00am 21.6 S 4 - 1016.5 - 0.0 - Mostly cloudy 10 - - - -
 
Date/Time
WST
Temp

°C
Wind Pressure Rain
since 9am
mm
Weather Cloud Vis
km
Sea
Height
m
Swell
Dir
 
Speed
knots
Gust
knots
hPa Trend Height
m
Period
s
Dir
26/11:30pm 22.0 S 4 - 1017.0 - 0.0 - Partly cloudy 10 - - - -
26/11:00pm 21.0 SSE 4 - 1017.0 - 0.0 - Partly cloudy 10 - - - -
26/10:30pm 22.0 S 5 - 1017.0 - 0.0 - Partly cloudy 10 - - - -
26/10:00pm 21.0 SE 3 - 1017.0 - 0.0 - Partly cloudy 10 - - - -
26/09:30pm 22.0 ESE 4 - 1017.0 - 0.0 - - 10 - - - -
26/09:00pm 21.5 E 4 - 1017.0 - 0.0 - - 8 - - - -
26/08:30pm 23.0 ENE 4 - 1017.0 - 0.0 - - 10 - - - -
26/08:00pm 23.0 NE 4 - 1017.0 - 0.0 - - 10 - - - -
26/07:30pm 24.0 NE 5 - 1016.0 - 0.0 - - 10 - - - -
26/07:00pm 24.0 NNE 5 - 1016.0 - 0.0 - - 10 - - - -
26/06:30pm 25.0 NNE 6 - 1016.0 - 0.0 - - 10 - - - -
26/06:00pm 24.9 NNE 6 - 1015.5 - 0.0 - - 10 - - - -
26/05:30pm 26.0 NNE 6 - 1015.0 - 0.0 - - 9 - - - -
26/05:00pm 26.0 NNE 7 - 1015.0 - 0.0 - - 10 - - - -
26/04:30pm 27.0 NNE 8 - 1015.0 - 0.0 - - 10 - - - -
26/04:00pm 28.0 N 9 - 1014.0 - 0.0 - - 10 - - - -
26/03:30pm 28.0 N 9 - 1014.0 - 0.0 - - 10 - - - -
26/03:00pm 28.7 NNE 7 - 1014.2 - 0.0 - - 10 - - - -
26/02:30pm 29.0 N 8 - 1014.0 - 0.0 - - 10 - - - -
26/02:00pm 29.0 N 9 - 1014.0 - 0.0 - - 10 - - - -
26/01:30pm 30.0 ENE 5 - 1014.0 - 0.0 - - 10 - - - -
26/01:00pm 30.0 NNE 8 - 1015.0 - 0.0 - Partly cloudy 10 - - - -
26/12:30pm 29.0 NNE 11 - 1015.0 - 0.0 - - 10 - - - -
26/12:00pm 30.3 E 9 - 1015.7 - 0.0 - - 10 - - - -
26/11:30am 30.0 E 9 - 1016.0 - 0.0 - - 10 - - - -
26/11:00am 29.0 E 9 - 1016.0 - 0.0 - - 10 - - - -
26/10:30am 29.0 E 8 - 1017.0 - 0.0 - - 10 - - - -
26/10:00am 29.0 E 7 - 1017.0 - 0.0 - - 10 - - - -
26/09:30am 28.0 ESE 6 - 1017.0 - 0.0 - - 10 - - - -
26/09:00am 27.0 ENE 4 - 1017.3 - 0.0 - - 10 - - - -
26/08:30am 25.0 E 4 - 1017.0 - 0.0 - - 10 - - - -
26/08:00am 24.0 CALM 0 - 1017.0 - 0.0 - - 10 - - - -
26/07:30am 22.0 SW 2 - 1017.0 - 0.0 - - 10 - - - -
26/07:00am 21.0 SSW 5 - 1016.0 - 0.0 - - 10 - - - -
26/06:30am 20.0 SSW 5 - 1016.0 - 0.0 - - 10 - - - -
26/06:00am 19.8 SSW 6 - 1015.7 - 0.0 - - 10 - - - -
26/05:30am 20.0 SSW 5 - 1016.0 - 0.0 - - 10 - - - -
26/05:00am 20.0 SSW 5 - 1015.0 - 0.0 - - 10 - - - -
26/04:30am 20.0 SSW 5 - 1015.0 - 0.0 - - 10 - - - -
26/04:00am 21.0 SW 4 - 1015.0 - 0.0 - - 10 - - - -
26/03:30am 21.0 SSW 6 - 1015.0 - 0.0 - - 10 - - - -
26/03:00am 19.5 S 4 - 1015.6 - 0.0 - - 10 - - - -
26/02:30am 19.0 S 4 - 1016.0 - 0.0 - - 9 - - - -
26/02:00am 20.0 S 4 - 1016.0 - 0.0 - - 10 - - - -
26/01:30am 20.0 S 5 - 1016.0 - 0.0 - - 10 - - - -
26/01:00am 20.0 SSW 4 - 1016.0 - 0.0 - - 10 - - - -
26/12:30am 20.0 SSW 1 - 1016.0 - 0.0 - - 10 - - - -
26/12:00am 20.1 CALM 0 - 1016.3 - 0.0 - - 10 - - - -
 
Date/Time
WST
Temp

°C
Wind Pressure Rain
since 9am
mm
Weather Cloud Vis
km
Sea
Height
m
Swell
Dir
 
Speed
knots
Gust
knots
hPa Trend Height
m
Period
s
Dir
25/11:30pm 20.0 CALM 0 - 1016.0 - 0.0 - - 10 - - - -
25/11:00pm 20.0 CALM 0 - 1016.0 - 0.0 - Partly cloudy 10 - - - -
25/10:30pm 21.0 CALM 0 - 1017.0 - 0.0 - Partly cloudy 10 - - - -
25/10:00pm 21.0 CALM 0 - 1017.0 - 0.0 - Partly cloudy 10 - - - -
25/09:30pm 21.0 SSE 3 - 1017.0 - 0.0 - - 10 - - - -
25/09:00pm 20.6 ESE 3 - 1016.7 - 0.0 - - 10 - - - -
25/08:30pm 21.0 SSE 3 - 1017.0 - 0.0 - - 10 - - - -
25/08:00pm 21.0 NE 3 - 1016.0 - 0.0 - - 10 - - - -
25/07:30pm 21.0 N 3 - 1016.0 - 0.0 - - 10 - - - -
25/07:00pm 22.0 NNE 1 - 1016.0 - 0.0 - - 10 - - - -
25/06:30pm 23.0 NNE 3 - 1015.0 - 0.0 - - 10 - - - -
25/06:00pm 23.7 NNE 4 - 1014.8 - 0.0 - - 10 - - - -
25/05:30pm 24.0 N 3 - 1014.0 - 0.0 - - 10 - - - -
25/05:00pm 26.0 N 6 - 1014.0 - 0.0 - - 10 - - - -
25/04:30pm 28.0 NNE 6 - 1013.0 - 0.0 - - 10 - - - -
25/04:00pm 29.0 N 6 - 1013.0 - 0.0 - - 10 - - - -
25/03:30pm 29.0 N 7 - 1013.0 - 0.0 - - 10 - - - -
25/03:00pm 29.0 NNW 6 - 1013.0 - 0.0 - - 10 - - - -
25/02:30pm 29.0 NNW 7 - 1013.0 - 0.0 - - 10 - - - -
25/02:00pm 29.0 NNW 7 - 1013.0 - 0.0 - - 10 - - - -
25/01:30pm 29.0 N 6 - 1013.0 - 0.0 - - 9 - - - -
25/01:00pm 29.0 NNW 5 - 1014.0 - 0.0 - - 10 - - - -
25/12:30pm 29.0 N 7 - 1014.0 - 0.0 - - 10 - - - -

Other Formats:

Comma delimited format used in spreadsheet applications
http://www.bom.gov.au/fwo/IDW60701/IDW60701.95101.axf

JavaScript Object Notation format (JSON) in row-major order
http://www.bom.gov.au/fwo/IDW60701/IDW60701.95101.json